Total_Precipitation_Accumulation
0.31 0.29 0.29 0.31 0.31 0.27 0.22 0.17 0.13 0.09 0.06 0.04 0.03 0.02 0.01 0.01 0.01 0.01 0.00 0.00 0.00 0.01 0.02 0.03 0.04 0.05 0.07 0.09 0.11 0.13 0.13 0.11 0.09 0.08 0.08 0.07 0.06 0.06 0.06 0.08 0.09 0.10 0.12
0.37 0.34 0.31 0.30 0.31 0.31 0.29 0.23 0.17 0.16 0.13 0.09 0.06 0.04 0.03 0.02 0.02 0.01 0.01 0.01 0.00 0.01 0.01 0.02 0.04 0.07 0.10 0.12 0.14 0.16 0.16 0.13 0.10 0.09 0.07 0.06 0.05 0.05 0.05 0.06 0.07 0.09 0.11
0.43 0.42 0.38 0.33 0.30 0.32 0.33 0.32 0.29 0.26 0.20 0.15 0.10 0.08 0.06 0.04 0.03 0.02 0.02 0.01 0.01 0.01 0.01 0.02 0.04 0.08 0.11 0.14 0.18 0.22 0.23 0.18 0.14 0.11 0.09 0.08 0.07 0.06 0.04 0.04 0.04 0.05 0.08
0.53 0.52 0.47 0.36 0.31 0.36 0.37 0.35 0.31 0.28 0.23 0.17 0.12 0.10 0.08 0.06 0.05 0.05 0.04 0.03 0.02 0.02 0.01 0.01 0.03 0.06 0.11 0.15 0.20 0.27 0.32 0.26 0.20 0.16 0.14 0.12 0.10 0.08 0.07 0.06 0.05 0.04 0.05
0.56 0.60 0.55 0.49 0.45 0.40 0.38 0.37 0.33 0.29 0.26 0.22 0.17 0.13 0.09 0.06 0.05 0.05 0.05 0.04 0.04 0.03 0.02 0.02 0.03 0.04 0.06 0.10 0.16 0.26 0.34 0.32 0.25 0.21 0.19 0.17 0.14 0.11 0.10 0.09 0.08 0.07 0.07
0.69 0.66 0.66 0.65 0.64 0.57 0.45 0.40 0.37 0.34 0.30 0.31 0.30 0.25 0.18 0.12 0.08 0.06 0.05 0.05 0.04 0.04 0.04 0.03 0.03 0.03 0.04 0.06 0.11 0.18 0.25 0.32 0.32 0.27 0.23 0.21 0.19 0.16 0.15 0.14 0.14 0.13 0.13
0.92 0.86 0.78 0.81 0.82 0.76 0.65 0.58 0.54 0.48 0.42 0.38 0.37 0.31 0.25 0.20 0.14 0.09 0.07 0.06 0.05 0.05 0.05 0.05 0.04 0.04 0.03 0.04 0.06 0.10 0.15 0.23 0.31 0.34 0.32 0.29 0.26 0.24 0.23 0.24 0.24 0.22 0.21
1.06 1.01 0.97 0.94 0.92 0.93 0.90 0.84 0.78 0.69 0.60 0.57 0.53 0.49 0.35 0.24 0.15 0.10 0.09 0.07 0.06 0.06 0.05 0.05 0.05 0.05 0.05 0.04 0.04 0.05 0.08 0.13 0.23 0.32 0.37 0.37 0.35 0.34 0.36 0.38 0.39 0.38 0.35
1.22 1.13 1.11 1.13 1.08 1.03 0.98 0.96 0.93 0.89 0.78 0.71 0.66 0.68 0.54 0.32 0.18 0.11 0.09 0.08 0.08 0.07 0.08 0.08 0.08 0.08 0.06 0.06 0.06 0.05 0.06 0.07 0.13 0.25 0.36 0.42 0.43 0.44 0.48 0.53 0.58 0.59 0.54
1.40 1.34 1.27 1.25 1.23 1.17 1.06 1.03 1.01 0.97 0.93 0.86 0.77 0.66 0.57 0.44 0.39 0.27 0.15 0.13 0.13 0.11 0.12 0.12 0.11 0.10 0.09 0.08 0.08 0.09 0.09 0.08 0.11 0.19 0.32 0.43 0.51 0.55 0.60 0.64 0.70 0.75 0.73
1.48 1.45 1.39 1.37 1.30 1.24 1.19 1.17 1.14 1.10 1.02 0.96 0.90 0.82 0.77 0.63 0.51 0.47 0.32 0.19 0.18 0.17 0.15 0.13 0.12 0.11 0.11 0.11 0.10 0.12 0.14 0.15 0.17 0.23 0.34 0.47 0.56 0.65 0.74 0.78 0.81 0.85 0.87
1.59 1.51 1.43 1.38 1.32 1.28 1.26 1.25 1.26 1.21 1.15 1.09 1.03 0.96 0.92 0.84 0.69 0.64 0.55 0.36 0.28 0.22 0.18 0.17 0.15 0.15 0.15 0.16 0.17 0.20 0.22 0.25 0.28 0.35 0.46 0.55 0.62 0.72 0.84 0.93 0.96 0.94 0.95
1.42 1.40 1.40 1.37 1.32 1.27 1.26 1.26 1.29 1.26 1.21 1.15 1.08 1.03 1.00 0.93 0.84 0.80 0.75 0.56 0.42 0.30 0.24 0.23 0.21 0.20 0.20 0.20 0.22 0.30 0.32 0.36 0.40 0.46 0.56 0.66 0.70 0.73 0.80 0.91 1.03 1.11 1.17
1.36 1.38 1.38 1.38 1.40 1.39 1.33 1.31 1.29 1.27 1.26 1.18 1.07 1.00 0.95 0.89 0.87 0.87 0.85 0.82 0.73 0.53 0.40 0.33 0.29 0.29 0.29 0.31 0.37 0.46 0.45 0.54 0.58 0.62 0.68 0.76 0.80 0.77 0.76 0.79 0.87 0.97 1.04
1.23 1.26 1.27 1.29 1.31 1.32 1.31 1.31 1.28 1.24 1.23 1.19 1.11 1.04 0.94 0.83 0.81 0.81 0.82 0.86 0.94 0.84 0.62 0.44 0.39 0.41 0.44 0.48 0.57 0.57 0.55 0.67 0.72 0.74 0.78 0.81 0.80 0.75 0.71 0.70 0.72 0.74 0.77
1.06 1.11 1.12 1.13 1.15 1.17 1.19 1.22 1.18 1.14 1.12 1.08 1.07 1.08 1.03 0.93 0.89 0.88 0.91 0.95 1.01 1.05 0.91 0.61 0.50 0.52 0.59 0.65 0.73 0.68 0.63 0.71 0.70 0.71 0.73 0.72 0.67 0.62 0.59 0.57 0.59 0.64 0.67
0.94 0.94 0.96 0.98 0.98 1.01 1.05 1.08 1.03 1.01 1.03 1.02 1.00 1.03 1.04 1.01 1.01 0.99 1.02 1.06 1.11 1.16 1.16 0.89 0.70 0.67 0.70 0.70 0.69 0.62 0.57 0.56 0.54 0.62 0.61 0.59 0.54 0.50 0.49 0.50 0.52 0.53 0.56
0.83 0.84 0.86 0.87 0.84 0.83 0.87 0.91 0.93 0.91 0.90 0.91 0.93 0.98 1.01 1.02 1.06 1.05 1.08 1.10 1.11 1.11 1.12 1.01 0.81 0.71 0.65 0.61 0.58 0.54 0.49 0.44 0.40 0.48 0.49 0.49 0.47 0.44 0.43 0.43 0.44 0.46 0.50
0.73 0.75 0.75 0.78 0.80 0.78 0.79 0.80 0.80 0.81 0.81 0.81 0.82 0.85 0.86 0.91 0.96 0.96 1.00 1.04 1.04 1.04 1.02 0.94 0.78 0.64 0.56 0.52 0.52 0.49 0.43 0.38 0.33 0.35 0.36 0.35 0.35 0.35 0.35 0.35 0.35 0.36 0.36
0.56 0.60 0.64 0.66 0.68 0.72 0.76 0.78 0.79 0.78 0.76 0.76 0.75 0.77 0.80 0.84 0.88 0.92 0.97 0.97 0.98 0.99 0.99 0.96 0.86 0.71 0.58 0.50 0.50 0.48 0.44 0.37 0.32 0.28 0.32 0.30 0.28 0.27 0.24 0.23 0.21 0.19 0.19
0.41 0.45 0.50 0.58 0.62 0.65 0.69 0.73 0.76 0.78 0.78 0.78 0.80 0.84 0.89 0.98 0.99 0.95 0.91 0.89 0.88 0.92 0.93 0.91 0.82 0.69 0.57 0.51 0.48 0.42 0.40 0.37 0.35 0.30 0.30 0.28 0.25 0.23 0.20 0.19 0.17 0.15 0.15
0.34 0.37 0.42 0.46 0.53 0.60 0.75 0.74 0.70 0.71 0.79 0.83 0.85 0.85 0.87 0.97 0.94 0.93 0.87 0.82 0.82 0.88 0.88 0.82 0.70 0.57 0.44 0.36 0.35 0.40 0.44 0.48 0.46 0.30 0.27 0.27 0.24 0.24 0.20 0.17 0.18 0.17 0.16
0.36 0.39 0.41 0.45 0.51 0.64 0.80 0.76 0.80 0.73 0.76 0.81 0.83 0.81 0.77 0.74 0.76 0.68 0.73 0.77 0.76 0.75 0.70 0.63 0.58 0.46 0.39 0.35 0.41 0.50 0.49 0.46 0.36 0.24 0.27 0.33 0.28 0.24 0.19 0.18 0.22 0.20 0.18
0.50 0.54 0.59 0.62 0.65 0.74 0.80 0.72 0.69 0.64 0.67 0.70 0.68 0.66 0.62 0.56 0.54 0.55 0.57 0.63 0.56 0.52 0.50 0.45 0.42 0.39 0.38 0.39 0.46 0.54 0.55 0.55 0.46 0.39 0.37 0.40 0.32 0.26 0.20 0.19 0.23 0.22 0.21
0.78 0.76 0.73 0.69 0.65 0.65 0.65 0.60 0.55 0.51 0.51 0.51 0.49 0.48 0.47 0.45 0.51 0.57 0.53 0.49 0.44 0.43 0.46 0.48 0.48 0.47 0.50 0.53 0.54 0.59 0.67 0.73 0.63 0.47 0.37 0.33 0.29 0.25 0.24 0.22 0.23 0.26 0.25
0.70 0.68 0.66 0.64 0.57 0.51 0.46 0.41 0.39 0.36 0.35 0.33 0.32 0.32 0.38 0.39 0.47 0.52 0.45 0.42 0.40 0.35 0.36 0.40 0.41 0.40 0.39 0.42 0.52 0.50 0.57 0.75 0.66 0.47 0.28 0.29 0.32 0.36 0.45 0.29 0.23 0.24 0.26